SCP
0 0 0 -0 -0 0 0 0 -0 0 -0 0 0 0 0 0 -0 0 0 0 0 0 0 -0 -0 0 0 0 0 0 0 0 0 0 0 0 0 0 0 0 0 0 0 0 0 0 -0 0 0 0 0 0 0 0
0 0 0 0 0 0 0 0 0 -0 -0 0 0 0 0 0 -0 -0 -0 -0 0 0 0 0 -0 -0 -0 0 0 0 0 0 0 0 0 0 0 0 0 0 0 0 0 0 0 0 0 0 0 0 0 0 0 0
0 0 0 0 0 0 0 0 0 -0 -0 -0 0 0 0 0 0 0 -0 -0 -0 0 0 -0 -0 -0 -0 -0 -0 0 0 0 0 0 0 0 0 0 0 0 0 0 0 0 0 0 0 0 -0 0 0 0 0 0
0 0 0 0 0 0 -0 -0 0 0 -0 -0 -0 0 0 0 0 0 0 0 -0 0 0 0 0 0 0 0 0 0 0 0 0 0 0 0 0 0 0 0 0 0 0 0 0 0 0 0 0 0 0 0 0 0
0 0 0 0 0 0 0 0 0 0 0 -0 -0 -0 0 0 0 0 0 -0 -0 -0 0 0 0 0 0 0 0 0 0 0 0 0 0 0 0 0 0 0 0 0 0 0 0 0 0 0 0 0 0 0 0 0
0 0 0 0 0 0 0 0 0 0 -0 -0 -0 -0 0 -0 0 0 0 0 0 -0 -0 -0 0 0 0 0 0 0 0 0 0 0 0 0 0 0 0 0 0 0 0 0 0 0 0 0 0 0 0 0 0 0
0 0 0 0 0 0 0 0 0 0 -0 -0 0 0 0 0 0 0 0 0 0 -0 0 -0 -0 0 0 0 0 0 0 0 0 0 0 0 0 0 0 0 0 0 0 0 0 0 0 0 0 0 0 0 0 0
0 0 0 0 0 0 0 0 0 0 -0 -0 0 0 0 0 0 0 0 -0 -0 0 0 0 0 -0 0 0 -0 0 0 0 0 0 0 0 0 0 0 -0 0 -0 0 0 0 0 0 0 0 0 0 0 0 0
0 0 0 0 0 0 0 0 0 0 -0 0 0 0 0 0 0 0 -0 -0 0 0 0 0 0 0 0 -0 -0 -0 0 0 -0 -0 0 0 0 0 -0 0 0 0 -0 0 0 0 0 0 0 -0 0 0 0 0
0 0 0 0 0 0 0 0 0 0 -0 0 0 0 0 0 0 -0 0 0 0 0 0 0 0 0 0 -0 -0 -0 0 -0 -0 -0 0 0 0 -0 0 0 0 0 0 0 -0 -0 0 0 -0 0 0 0 0 0
0 0 0 0 0 0 0 0 0 0 0 0 0 0 0 0 0 0 0 0 0 0 0 0 -0 0 0 0 -0 -0 0 -0 -0 -0 0 -0 -0 0 -0 0 0 0 0 0 -0 -0 0 0 0 0 0 0 0 0
0 0 0 -0 -0 0 0 0 0 0 0 0 0 0 0 0 0 0 0 -0 0 0 0 0 0 0 -0 0 -0 -0 -0 -0 -0 0 -0 0 -0 -0 0 0 0 0 0 0 0 0 0 -0 0 0 0 1 0 0
0 0 -0 -0 -0 0 0 0 0 0 0 0 0 0 0 0 0 0 0 0 0 0 0 -0 -0 0 0 0 0 0 0 0 0 -0 0 0 0 -0 0 0 0 0 0 0 0 0 0 0 0 0 0 0 0 0
0 0 -0 -0 -0 -0 0 0 0 0 0 0 0 0 0 0 0 0 0 0 0 0 0 -0 -0 0 0 0 -0 -0 0 0 0 0 0 0 -0 -0 0 0 0 0 0 0 0 0 0 0 0 0 0 0 0 0
0 -0 -0 0 -0 -0 -0 0 0 0 0 0 0 0 0 0 0 0 -0 0 0 0 0 0 0 0 0 0 0 0 0 0 0 0 0 0 0 0 0 0 0 0 0 0 0 0 0 0 0 0 0 0 0 0
0 0 0 0 -0 -0 -0 0 0 0 0 0 0 0 0 0 0 0 0 -0 0 0 0 0 0 0 0 0 0 0 0 0 0 0 0 -0 -0 0 -0 0 0 0 0 0 0 0 0 0 0 0 0 0 0 0
0 0 0 -0 -0 -0 0 0 0 0 0 0 0 0 0 0 0 0 -0 -0 0 0 0 0 0 0 0 0 0 0 0 0 0 0 0 0 0 -0 -0 -0 0 -0 0 0 0 0 0 0 0 0 0 0 0 0
0 0 0 -0 -0 0 0 0 0 0 0 0 0 0 0 0 0 0 0 0 0 -0 0 0 0 0 0 0 0 0 0 0 0 0 -0 -0 0 0 -0 -0 -0 0 0 0 0 0 0 0 0 0 0 0 0 0
0 0 0 0 0 0 0 0 0 0 0 0 0 0 0 0 0 0 0 -0 0 0 -0 -0 0 0 0 0 0 0 0 0 0 0 0 0 0 0 0 0 -0 -0 0 0 0 0 0 0 0 0 0 0 0 0
0 0 0 0 0 0 0 0 0 0 0 0 0 0 0 0 0 0 0 -0 -0 0 0 0 -0 -0 0 0 -0 -0 -0 -0 0 0 0 -0 0 0 -0 0 0 0 0 0 0 0 0 0 0 0 0 0 0 0
0 0 0 0 0 0 0 0 0 0 0 0 0 -0 0 -0 -0 -0 -0 -0 0 -0 0 0 0 0 -0 -0 0 -0 -0 -0 -0 -0 0 0 0 0 0 0 0 0 0 0 0 0 0 0 0 0 0 0 0 0
0 0 0 0 0 0 0 0 0 0 0 0 0 0 0 0 -0 0 -0 -0 -0 -0 -0 -0 -0 -0 0 0 0 -0 -0 -0 -0 -0 0 0 0 0 0 0 0 0 0 0 0 0 0 0 0 0 0 0 0 0
0 0 0 0 0 0 0 0 0 0 0 0 0 0 0 0 0 -0 -0 -0 -0 0 -0 -0 -0 0 0 0 0 0 0 -0 -0 -0 0 -0 -0 -0 0 0 0 0 0 0 0 -0 0 -0 0 0 0 0 0 0
0 0 0 0 0 0 0 0 0 0 0 0 0 0 0 0 0 0 0 -0 0 -0 -0 -0 -0 0 0 0 0 0 0 -0 -0 -0 -0 -0 -0 0 0 0 0 0 0 0 0 0 0 0 0 0 0 0 0 0
0 0 0 0 0 0 0 0 0 0 0 0 0 0 0 0 0 0 0 0 0 -0 0 -0 -0 0 0 0 0 0 0 0 0 0 0 0 -0 -0 -0 -0 0 0 0 0 0 0 0 0 0 0 0 0 0 0
0 0 0 0 0 0 0 0 0 0 0 0 0 0 0 0 0 0 0 0 0 0 0 0 0 0 0 0 0 0 0 0 0 0 0 0 0 0 0 0 0 0 0 0 0 0 0 0 0 0 0 0 0 0
0 0 0 0 0 0 0 0 0 0 0 0 0 0 0 0 0 0 0 0 0 0 0 0 0 0 0 0 0 0 0 0 0 0 0 0 0 0 0 0 0 0 0 0 0 0 0 0 0 0 0 0 0 0
0 0 0 0 0 0 0 0 0 0 0 0 0 0 0 0 0 0 -0 -0 0 0 0 0 0 0 0 0 0 0 0 0 0 0 -0 0 0 0 0 0 0 0 0 0 0 0 0 0 0 0 0 0 0 0
0 0 0 0 0 0 0 0 0 0 0 0 0 0 0 0 0 0 0 0 0 0 0 -0 0 0 0 0 0 0 0 0 0 0 0 0 0 0 0 0 0 0 0 0 0 0 0 0 0 0 0 0 0 0
0 0 0 0 0 0 0 0 0 0 0 0 0 0 0 0 0 0 0 0 0 0 0 0 0 0 0 0 0 0 0 0 0 0 0 0 0 0 0 0 0 0 0 0 0 0 0 0 0 0 0 0 0 0
0 0 0 0 0 0 0 0 0 0 0 0 0 0 0 0 0 0 0 0 0 0 0 0 0 0 0 0 0 0 0 0 0 0 0 0 0 0 0 0 0 0 0 0 0 0 0 0 0 0 0 0 0 0
0 0 0 0 0 0 0 0 0 0 0 0 0 0 0 0 0 0 0 0 0 0 0 0 0 0 0 0 0 0 0 0 0 0 0 0 0 0 0 0 0 0 0 0 0 0 0 0 0 0 0 0 0 0
0 0 0 0 0 0 0 0 0 0 0 0 0 0 0 0 0 0 0 0 0 0 0 0 0 0 0 0 0 0 0 0 0 0 0 0 0 0 0 0 0 0 0 0 0 0 0 0 0 0 0 0 0 0
Wind_Speed_500mb
71 67 59 55 56 56 56 54 53 62 54 28 21 18 7 3 11 12 9 12 18 8 19 7 9 8 9 4 3 8 12 11 10 16 13 16 18 25 18 16 23 23 17 14 14 16 29 13 25 28 14 13 22 40
68 68 62 56 55 53 52 53 52 57 55 29 22 21 18 3 9 11 10 7 7 16 18 25 17 16 10 12 9 2 5 3 2 12 11 10 14 14 28 30 26 22 21 25 17 15 5 46 34 53 33 23 26 35
67 63 62 54 52 46 46 50 46 47 50 33 27 22 27 14 18 5 9 7 26 10 21 17 10 16 25 21 14 4 2 2 5 2 4 8 11 9 17 29 37 39 15 20 23 35 22 32 40 29 47 30 28 32
66 63 59 51 49 39 40 47 47 46 42 43 26 26 13 10 9 5 11 9 10 8 6 6 10 13 11 13 21 22 11 5 5 5 7 7 7 9 17 5 17 29 24 30 23 18 10 23 40 27 35 30 25 23
65 59 54 49 47 43 35 39 40 46 44 37 38 26 24 15 1 2 2 2 14 10 7 16 28 12 12 17 20 24 32 16 3 3 4 8 5 7 8 4 12 10 30 20 25 17 14 20 59 59 43 53 42 38
66 60 53 50 48 42 29 35 42 47 41 33 26 17 8 12 18 10 4 6 15 11 8 7 10 4 11 13 12 19 29 16 6 6 7 9 7 8 9 16 29 16 6 6 10 39 32 50 39 55 60 56 51 39
63 59 53 51 47 41 37 42 49 48 47 27 18 16 5 8 17 7 4 15 20 16 6 8 9 5 11 1 8 12 20 15 13 9 11 11 9 14 6 11 31 31 33 25 19 33 26 48 42 51 53 56 43 46
59 54 51 49 47 46 48 51 49 53 46 24 19 13 14 15 14 6 9 21 18 9 8 5 6 9 4 3 7 17 14 17 13 13 10 10 10 10 11 25 32 42 43 52 40 25 44 44 38 59 71 53 48 42
57 52 48 47 48 52 57 60 59 53 47 29 19 15 11 5 6 11 31 19 10 7 6 4 5 5 9 5 8 5 12 8 13 9 9 11 6 11 21 23 25 23 24 31 33 42 40 45 53 49 55 51 59 51
51 49 47 49 55 60 62 63 59 51 42 27 12 4 4 9 27 18 7 6 4 4 7 5 9 6 8 6 8 5 15 5 6 12 11 9 9 39 32 31 22 26 35 39 34 43 37 48 52 57 63 65 62 57
50 51 52 54 59 61 64 62 55 48 34 19 13 4 18 15 8 7 7 5 5 5 6 9 10 7 9 6 4 13 4 4 5 6 8 8 8 13 18 27 30 28 32 37 39 48 45 49 54 58 50 58 59 52
51 52 55 52 61 64 67 59 48 44 31 18 13 11 14 12 7 7 6 6 5 7 9 7 14 14 8 9 5 7 5 5 9 9 7 6 2 8 8 9 14 7 19 15 24 30 29 36 37 59 69 63 52 37
53 52 52 49 62 65 65 52 40 35 19 10 12 8 10 11 11 12 14 5 11 13 11 30 15 7 8 8 6 4 6 7 4 6 5 3 3 5 12 16 15 17 12 18 26 27 31 37 38 52 63 54 46 44
53 50 44 51 60 65 59 45 36 28 12 8 11 12 10 6 5 4 6 11 18 20 36 36 17 5 5 4 4 8 6 7 5 3 5 5 10 4 20 21 21 30 40 61 55 42 54 46 48 57 61 55 58 51
51 45 41 54 61 60 46 38 31 23 11 9 10 11 7 13 20 23 24 19 24 31 30 18 14 8 3 4 5 8 10 8 8 7 6 18 13 27 9 18 20 36 48 70 62 51 52 51 65 57 47 51 43 37
54 42 48 53 59 52 32 29 21 16 8 9 9 6 14 12 14 18 30 30 35 42 14 5 6 8 6 9 6 8 15 11 9 9 27 37 29 19 30 37 37 53 61 65 60 53 47 44 45 47 45 42 37 29
50 43 49 52 55 42 25 20 13 11 9 8 7 16 16 16 20 22 29 27 44 21 7 6 10 9 8 8 11 8 10 10 25 38 47 41 39 50 54 54 53 60 60 59 56 53 49 41 35 29 28 22 14 10
55 47 43 51 50 34 20 19 8 9 8 6 10 32 34 20 26 31 31 34 19 16 8 6 5 11 8 12 12 6 11 21 39 47 49 52 48 52 58 56 51 50 55 55 53 50 45 42 41 39 31 24 15 12
53 47 45 45 40 19 12 11 10 8 4 14 23 33 30 28 36 39 43 39 27 18 6 7 8 9 7 9 15 36 30 49 43 33 41 45 52 56 51 48 48 47 50 52 50 49 47 44 41 34 29 25 23 16
39 29 37 29 21 10 7 7 10 8 7 12 22 37 19 20 36 43 43 41 33 21 18 9 7 13 7 20 25 17 12 16 32 40 47 48 49 50 52 51 47 43 44 46 47 44 44 48 46 39 32 27 22 22
37 40 27 21 9 13 7 10 6 8 11 10 21 26 14 21 29 34 35 34 23 13 10 17 28 33 25 38 32 27 32 28 19 23 30 35 43 43 44 43 42 44 43 39 42 44 49 53 49 44 37 33 29 26
40 32 21 16 7 8 3 12 11 13 8 14 16 20 7 8 12 14 16 20 10 15 21 25 35 29 26 31 39 22 30 40 44 41 41 47 51 47 43 39 36 35 36 37 34 36 38 38 38 41 39 36 31 28
27 17 11 9 6 7 4 18 7 12 5 14 16 6 5 7 13 8 7 9 7 23 33 35 37 15 22 22 21 22 22 26 30 31 34 40 42 41 40 40 37 33 31 34 32 30 28 28 31 35 39 39 39 35
15 8 6 7 9 6 10 8 10 10 8 7 8 8 8 11 18 7 5 9 20 39 43 45 41 24 12 21 26 28 27 18 19 23 25 28 31 34 38 39 32 31 33 28 25 25 24 21 19 23 28 31 34 35
7 5 5 7 6 6 6 8 8 6 5 6 9 5 7 13 5 5 6 17 32 37 42 45 35 27 25 20 23 20 20 20 21 22 21 21 21 23 26 30 36 37 29 25 27 21 19 19 17 18 15 19 23 26
1 2 1 2 3 3 3 4 6 5 4 5 5 8 8 5 3 2 3 22 27 37 42 40 36 26 14 20 21 22 21 7 9 12 14 12 14 18 20 22 24 29 28 28 27 26 23 18 14 11 11 15 16 17
4 5 4 4 5 4 1 1 2 2 1 2 4 6 5 3 3 3 12 26 31 33 35 31 23 19 16 10 10 16 16 15 10 16 18 17 16 17 16 18 22 25 26 25 23 22 23 25 28 25 21 15 14 10
9 12 7 5 4 5 4 3 3 5 3 4 3 3 5 4 4 2 22 45 38 33 22 25 15 14 13 13 10 4 5 3 8 10 12 18 20 18 16 14 12 11 12 16 20 21 18 17 19 21 20 21 22 23
11 14 13 6 5 7 9 9 7 8 7 6 4 4 8 14 30 43 46 42 37 35 26 21 18 12 10 4 6 9 8 4 2 1 4 10 5 13 19 19 17 15 13 11 13 13 8 12 15 14 13 14 16 21
12 23 11 8 6 7 9 15 13 19 19 19 19 24 34 41 45 50 51 43 40 38 30 27 23 18 14 13 6 6 10 10 10 10 11 13 15 17 19 19 20 20 19 17 18 17 8 4 6 4 2 2 10 16
13 24 8 11 10 17 29 29 29 32 34 37 41 38 42 46 48 44 40 34 35 34 33 30 22 22 22 15 9 4 6 9 12 14 14 13 14 16 17 18 18 18 17 17 16 16 15 12 12 12 11 11 12 13
18 19 14 9 14 31 29 21 20 24 28 26 36 37 37 32 26 22 27 30 34 37 32 26 25 19 15 11 14 7 9 12 11 9 7 8 11 13 15 16 16 16 16 15 13 12 10 11 12 14 14 14 15 17
14 18 17 7 7 10 18 13 9 11 18 23 38 44 42 27 12 9 13 18 21 25 24 24 21 19 17 14 9 8 9 8 5 3 2 6 9 12 14 17 19 20 20 19 17 15 14 13 13 13 13 13 13 13
Wind_Direction_500mb
356 356 354 354 355 357 358 357 0 5 3 6 16 16 9 106 172 194 241 229 250 282 299 285 330 31 27 319 185 133 169 206 186 193 205 200 225 210 233 241 214 198 182 205 202 224 245 163 156 188 196 204 205 202
352 355 357 357 359 3 2 4 8 10 16 28 30 22 22 125 178 182 265 225 301 269 279 302 287 252 234 280 337 320 49 140 196 197 201 212 217 203 213 226 238 232 219 222 211 229 88 180 179 207 213 208 200 200
353 354 355 357 1 7 6 7 7 13 15 20 24 13 20 97 134 202 13 290 293 276 295 284 283 244 246 252 252 303 226 40 133 20 289 237 213 202 215 223 221 233 237 239 222 237 229 207 223 228 218 215 228 219
354 353 353 356 0 5 0 1 5 9 11 14 15 10 14 107 190 328 314 315 0 317 295 294 293 249 248 263 257 245 230 111 28 293 266 238 234 199 221 258 226 221 207 227 241 248 244 234 223 233 216 209 210 211
358 358 357 360 0 2 358 1 9 10 7 11 20 41 60 52 93 185 311 33 347 335 306 293 294 271 255 272 282 231 219 236 352 287 254 218 216 240 208 251 235 224 218 222 232 219 228 220 214 222 213 209 207 191
360 0 2 1 358 359 3 1 356 356 354 350 3 18 67 36 11 354 330 346 0 342 293 295 317 298 310 310 235 207 200 215 221 230 250 243 229 230 226 232 239 203 181 201 282 316 303 267 256 225 210 210 211 196
360 2 4 4 6 9 4 356 352 354 349 348 338 350 358 352 8 17 355 325 326 319 281 291 308 305 314 357 155 176 192 203 215 230 227 252 219 193 233 235 239 227 230 252 295 325 290 253 248 242 221 225 218 216
0 3 7 9 9 3 356 353 353 354 354 342 333 312 290 300 312 286 310 316 314 322 273 292 286 305 268 252 205 183 188 207 225 236 233 209 193 221 246 248 268 265 268 267 275 282 264 261 255 230 233 223 205 205
358 359 4 6 5 360 353 347 345 348 351 343 325 301 296 306 306 301 311 310 280 269 303 302 297 303 313 231 199 261 197 209 220 222 229 193 187 222 233 243 259 282 257 269 270 280 274 248 244 237 224 209 203 206
355 355 356 356 353 352 349 343 341 344 344 341 327 325 278 314 313 316 321 329 301 261 223 250 243 250 257 236 199 208 197 227 221 215 179 215 232 245 231 225 261 287 267 252 260 270 254 236 231 216 208 198 193 191
349 348 345 345 347 346 347 346 344 345 349 353 342 327 327 335 2 10 338 345 319 273 225 259 259 264 254 240 238 214 211 229 233 189 216 210 234 223 221 245 264 276 253 244 251 256 256 242 222 201 177 173 173 176
341 341 342 338 345 348 348 346 345 345 345 345 354 354 353 3 14 18 347 319 321 316 308 303 294 282 273 241 223 247 226 213 238 150 209 227 207 242 276 287 294 290 228 215 227 230 226 209 194 177 165 158 152 149
339 337 337 339 347 349 349 348 350 351 359 17 15 359 9 358 25 8 359 351 321 326 306 321 316 280 280 232 264 289 246 234 155 208 209 55 30 142 32 348 10 25 185 180 123 114 134 138 143 146 141 140 145 147
341 341 341 345 349 350 348 353 356 1 17 26 17 25 27 11 332 295 301 296 286 268 303 310 293 259 289 314 293 284 298 281 291 0 31 11 50 146 50 318 344 65 130 94 94 96 107 104 110 104 101 125 126 126
341 342 343 347 349 349 347 353 4 11 27 48 37 17 352 312 295 284 289 292 304 305 312 301 275 263 339 315 355 296 312 332 22 343 334 6 90 124 86 347 77 88 111 125 131 129 109 111 103 112 107 95 100 104
345 342 345 344 348 349 350 353 12 29 41 38 50 339 315 316 318 330 330 318 343 329 321 282 322 357 349 329 320 356 318 8 322 320 30 55 74 103 106 87 84 85 83 88 90 94 97 92 92 87 90 91 86 86
348 345 341 344 347 353 357 8 15 30 40 22 344 324 305 282 270 307 313 319 340 345 354 28 14 345 300 340 355 16 342 306 333 18 43 56 57 67 76 77 71 79 77 78 79 75 77 84 88 87 83 86 97 109
344 345 341 343 347 358 8 16 25 29 28 342 331 341 336 324 326 348 349 354 359 357 12 38 338 3 7 347 334 319 305 342 38 35 44 53 62 56 58 60 63 70 77 79 78 79 78 75 70 64 63 71 93 147
339 336 338 340 344 354 5 19 17 11 320 331 335 348 348 355 11 23 29 29 33 36 56 22 22 6 0 328 339 339 16 40 29 24 47 55 59 60 59 57 57 64 69 69 67 63 64 66 65 62 57 58 68 76
342 337 336 337 348 358 2 10 8 337 338 326 339 343 347 4 25 39 40 34 33 31 35 32 2 347 327 344 352 346 10 62 42 27 37 47 50 52 56 60 63 71 75 73 67 68 64 61 57 54 54 57 59 60
344 345 347 354 1 19 27 5 336 340 323 324 335 345 322 9 32 37 27 31 40 32 359 342 340 350 21 23 33 55 51 53 36 37 50 52 52 55 58 64 67 67 70 72 69 67 63 59 53 50 52 57 56 58
337 343 340 356 353 350 1 1 310 305 300 307 335 335 344 7 354 6 7 34 43 9 353 336 343 345 357 9 14 49 64 63 66 69 58 52 50 50 54 58 64 61 60 57 60 64 67 65 61 58 57 58 58 58
335 340 343 342 326 340 311 344 357 351 331 329 348 340 4 5 356 356 56 22 27 358 1 1 3 350 354 15 24 54 66 65 62 55 54 55 56 52 49 49 50 51 55 55 52 52 62 66 65 59 56 55 55 54
339 347 340 356 359 320 334 346 352 350 347 8 348 337 4 347 343 52 9 340 349 353 0 9 13 21 39 43 41 51 55 65 60 64 60 51 50 46 43 43 43 48 49 50 54 50 53 58 58 56 52 48 47 46
334 342 6 344 359 352 9 354 358 16 347 2 347 347 358 341 12 43 9 351 353 358 355 356 7 14 9 15 37 47 58 72 69 77 77 75 69 60 58 57 54 53 52 50 49 44 37 35 34 38 34 31 30 30
142 298 79 337 330 3 336 336 4 356 333 332 351 304 339 326 39 87 321 342 341 345 349 347 343 350 8 360 8 16 11 35 64 81 73 68 67 65 61 56 53 48 42 43 39 37 34 25 20 23 21 11 9 3
216 234 212 242 281 273 232 293 276 302 353 331 323 327 324 314 248 176 359 351 337 337 345 339 356 4 352 339 3 12 7 40 66 78 67 61 61 62 60 56 50 46 41 38 38 46 50 50 48 48 47 43 33 17
210 187 193 209 216 213 215 201 231 224 216 192 283 270 299 241 246 314 335 331 325 320 317 331 337 353 8 10 9 325 244 91 82 62 54 51 59 56 55 50 44 38 32 32 29 24 26 31 31 38 44 41 34 26
203 192 187 223 215 215 223 209 217 217 209 193 209 248 249 266 289 301 311 310 309 299 294 343 317 320 343 19 61 71 86 119 192 220 74 44 24 23 39 40 36 34 32 31 22 2 354 15 22 27 31 32 33 24
208 186 183 197 191 223 232 213 238 251 257 264 266 274 281 285 296 302 301 298 292 291 270 268 253 253 265 284 307 42 56 54 47 37 27 19 15 9 5 4 6 9 12 10 14 16 3 341 354 10 60 359 346 347
178 186 195 207 227 244 262 271 270 266 264 267 280 276 279 295 302 297 288 279 276 271 263 261 257 260 248 231 241 302 350 9 7 0 0 1 357 353 347 345 345 347 348 349 351 354 356 343 325 321 308 297 308 331
193 197 201 211 249 272 275 270 265 262 266 263 275 283 284 292 297 290 267 250 250 251 250 246 238 246 271 279 272 290 322 336 342 347 351 1 6 7 8 7 3 357 349 347 347 344 337 330 328 326 324 314 299 294
213 225 227 243 256 260 264 242 251 262 257 270 277 283 287 281 248 267 275 269 249 240 237 234 241 228 218 230 242 277 292 292 289 294 46 61 54 44 39 39 39 38 35 29 22 13 6 2 356 351 351 352 350 334
Wind_Speed_850mb
71 67 59 55 56 56 56 54 53 62 54 28 21 18 7 3 11 12 9 12 18 8 19 7 9 8 9 4 3 8 12 11 10 16 13 16 18 25 18 16 23 23 17 14 14 16 29 13 25 28 14 13 22 40
68 68 62 56 55 53 52 53 52 57 55 29 22 21 18 3 9 11 10 7 7 16 18 25 17 16 10 12 9 2 5 3 2 12 11 10 14 14 28 30 26 22 21 25 17 15 5 46 34 53 33 23 26 35
67 63 62 54 52 46 46 50 46 47 50 33 27 22 27 14 18 5 9 7 26 10 21 17 10 16 25 21 14 4 2 2 5 2 4 8 11 9 17 29 37 39 15 20 23 35 22 32 40 29 47 30 28 32
66 63 59 51 49 39 40 47 47 46 42 43 26 26 13 10 9 5 11 9 10 8 6 6 10 13 11 13 21 22 11 5 5 5 7 7 7 9 17 5 17 29 24 30 23 18 10 23 40 27 35 30 25 23
65 59 54 49 47 43 35 39 40 46 44 37 38 26 24 15 1 2 2 2 14 10 7 16 28 12 12 17 20 24 32 16 3 3 4 8 5 7 8 4 12 10 30 20 25 17 14 20 59 59 43 53 42 38
66 60 53 50 48 42 29 35 42 47 41 33 26 17 8 12 18 10 4 6 15 11 8 7 10 4 11 13 12 19 29 16 6 6 7 9 7 8 9 16 29 16 6 6 10 39 32 50 39 55 60 56 51 39
63 59 53 51 47 41 37 42 49 48 47 27 18 16 5 8 17 7 4 15 20 16 6 8 9 5 11 1 8 12 20 15 13 9 11 11 9 14 6 11 31 31 33 25 19 33 26 48 42 51 53 56 43 46
59 54 51 49 47 46 48 51 49 53 46 24 19 13 14 15 14 6 9 21 18 9 8 5 6 9 4 3 7 17 14 17 13 13 10 10 10 10 11 25 32 42 43 52 40 25 44 44 38 59 71 53 48 42
57 52 48 47 48 52 57 60 59 53 47 29 19 15 11 5 6 11 31 19 10 7 6 4 5 5 9 5 8 5 12 8 13 9 9 11 6 11 21 23 25 23 24 31 33 42 40 45 53 49 55 51 59 51
51 49 47 49 55 60 62 63 59 51 42 27 12 4 4 9 27 18 7 6 4 4 7 5 9 6 8 6 8 5 15 5 6 12 11 9 9 39 32 31 22 26 35 39 34 43 37 48 52 57 63 65 62 57
50 51 52 54 59 61 64 62 55 48 34 19 13 4 18 15 8 7 7 5 5 5 6 9 10 7 9 6 4 13 4 4 5 6 8 8 8 13 18 27 30 28 32 37 39 48 45 49 54 58 50 58 59 52
51 52 55 52 61 64 67 59 48 44 31 18 13 11 14 12 7 7 6 6 5 7 9 7 14 14 8 9 5 7 5 5 9 9 7 6 2 8 8 9 14 7 19 15 24 30 29 36 37 59 69 63 52 37
53 52 52 49 62 65 65 52 40 35 19 10 12 8 10 11 11 12 14 5 11 13 11 30 15 7 8 8 6 4 6 7 4 6 5 3 3 5 12 16 15 17 12 18 26 27 31 37 38 52 63 54 46 44
53 50 44 51 60 65 59 45 36 28 12 8 11 12 10 6 5 4 6 11 18 20 36 36 17 5 5 4 4 8 6 7 5 3 5 5 10 4 20 21 21 30 40 61 55 42 54 46 48 57 61 55 58 51
51 45 41 54 61 60 46 38 31 23 11 9 10 11 7 13 20 23 24 19 24 31 30 18 14 8 3 4 5 8 10 8 8 7 6 18 13 27 9 18 20 36 48 70 62 51 52 51 65 57 47 51 43 37
54 42 48 53 59 52 32 29 21 16 8 9 9 6 14 12 14 18 30 30 35 42 14 5 6 8 6 9 6 8 15 11 9 9 27 37 29 19 30 37 37 53 61 65 60 53 47 44 45 47 45 42 37 29
50 43 49 52 55 42 25 20 13 11 9 8 7 16 16 16 20 22 29 27 44 21 7 6 10 9 8 8 11 8 10 10 25 38 47 41 39 50 54 54 53 60 60 59 56 53 49 41 35 29 28 22 14 10
55 47 43 51 50 34 20 19 8 9 8 6 10 32 34 20 26 31 31 34 19 16 8 6 5 11 8 12 12 6 11 21 39 47 49 52 48 52 58 56 51 50 55 55 53 50 45 42 41 39 31 24 15 12
53 47 45 45 40 19 12 11 10 8 4 14 23 33 30 28 36 39 43 39 27 18 6 7 8 9 7 9 15 36 30 49 43 33 41 45 52 56 51 48 48 47 50 52 50 49 47 44 41 34 29 25 23 16
39 29 37 29 21 10 7 7 10 8 7 12 22 37 19 20 36 43 43 41 33 21 18 9 7 13 7 20 25 17 12 16 32 40 47 48 49 50 52 51 47 43 44 46 47 44 44 48 46 39 32 27 22 22
37 40 27 21 9 13 7 10 6 8 11 10 21 26 14 21 29 34 35 34 23 13 10 17 28 33 25 38 32 27 32 28 19 23 30 35 43 43 44 43 42 44 43 39 42 44 49 53 49 44 37 33 29 26
40 32 21 16 7 8 3 12 11 13 8 14 16 20 7 8 12 14 16 20 10 15 21 25 35 29 26 31 39 22 30 40 44 41 41 47 51 47 43 39 36 35 36 37 34 36 38 38 38 41 39 36 31 28
27 17 11 9 6 7 4 18 7 12 5 14 16 6 5 7 13 8 7 9 7 23 33 35 37 15 22 22 21 22 22 26 30 31 34 40 42 41 40 40 37 33 31 34 32 30 28 28 31 35 39 39 39 35
15 8 6 7 9 6 10 8 10 10 8 7 8 8 8 11 18 7 5 9 20 39 43 45 41 24 12 21 26 28 27 18 19 23 25 28 31 34 38 39 32 31 33 28 25 25 24 21 19 23 28 31 34 35
7 5 5 7 6 6 6 8 8 6 5 6 9 5 7 13 5 5 6 17 32 37 42 45 35 27 25 20 23 20 20 20 21 22 21 21 21 23 26 30 36 37 29 25 27 21 19 19 17 18 15 19 23 26
1 2 1 2 3 3 3 4 6 5 4 5 5 8 8 5 3 2 3 22 27 37 42 40 36 26 14 20 21 22 21 7 9 12 14 12 14 18 20 22 24 29 28 28 27 26 23 18 14 11 11 15 16 17
4 5 4 4 5 4 1 1 2 2 1 2 4 6 5 3 3 3 12 26 31 33 35 31 23 19 16 10 10 16 16 15 10 16 18 17 16 17 16 18 22 25 26 25 23 22 23 25 28 25 21 15 14 10
9 12 7 5 4 5 4 3 3 5 3 4 3 3 5 4 4 2 22 45 38 33 22 25 15 14 13 13 10 4 5 3 8 10 12 18 20 18 16 14 12 11 12 16 20 21 18 17 19 21 20 21 22 23
11 14 13 6 5 7 9 9 7 8 7 6 4 4 8 14 30 43 46 42 37 35 26 21 18 12 10 4 6 9 8 4 2 1 4 10 5 13 19 19 17 15 13 11 13 13 8 12 15 14 13 14 16 21
12 23 11 8 6 7 9 15 13 19 19 19 19 24 34 41 45 50 51 43 40 38 30 27 23 18 14 13 6 6 10 10 10 10 11 13 15 17 19 19 20 20 19 17 18 17 8 4 6 4 2 2 10 16
13 24 8 11 10 17 29 29 29 32 34 37 41 38 42 46 48 44 40 34 35 34 33 30 22 22 22 15 9 4 6 9 12 14 14 13 14 16 17 18 18 18 17 17 16 16 15 12 12 12 11 11 12 13
18 19 14 9 14 31 29 21 20 24 28 26 36 37 37 32 26 22 27 30 34 37 32 26 25 19 15 11 14 7 9 12 11 9 7 8 11 13 15 16 16 16 16 15 13 12 10 11 12 14 14 14 15 17
14 18 17 7 7 10 18 13 9 11 18 23 38 44 42 27 12 9 13 18 21 25 24 24 21 19 17 14 9 8 9 8 5 3 2 6 9 12 14 17 19 20 20 19 17 15 14 13 13 13 13 13 13 13
Wind_Direction_850mb
356 356 354 354 355 357 358 357 0 5 3 6 16 16 9 106 172 194 241 229 250 282 299 285 330 31 27 319 185 133 169 206 186 193 205 200 225 210 233 241 214 198 182 205 202 224 245 163 156 188 196 204 205 202
352 355 357 357 359 3 2 4 8 10 16 28 30 22 22 125 178 182 265 225 301 269 279 302 287 252 234 280 337 320 49 140 196 197 201 212 217 203 213 226 238 232 219 222 211 229 88 180 179 207 213 208 200 200
353 354 355 357 1 7 6 7 7 13 15 20 24 13 20 97 134 202 13 290 293 276 295 284 283 244 246 252 252 303 226 40 133 20 289 237 213 202 215 223 221 233 237 239 222 237 229 207 223 228 218 215 228 219
354 353 353 356 0 5 0 1 5 9 11 14 15 10 14 107 190 328 314 315 0 317 295 294 293 249 248 263 257 245 230 111 28 293 266 238 234 199 221 258 226 221 207 227 241 248 244 234 223 233 216 209 210 211
358 358 357 360 0 2 358 1 9 10 7 11 20 41 60 52 93 185 311 33 347 335 306 293 294 271 255 272 282 231 219 236 352 287 254 218 216 240 208 251 235 224 218 222 232 219 228 220 214 222 213 209 207 191
360 0 2 1 358 359 3 1 356 356 354 350 3 18 67 36 11 354 330 346 0 342 293 295 317 298 310 310 235 207 200 215 221 230 250 243 229 230 226 232 239 203 181 201 282 316 303 267 256 225 210 210 211 196
360 2 4 4 6 9 4 356 352 354 349 348 338 350 358 352 8 17 355 325 326 319 281 291 308 305 314 357 155 176 192 203 215 230 227 252 219 193 233 235 239 227 230 252 295 325 290 253 248 242 221 225 218 216
0 3 7 9 9 3 356 353 353 354 354 342 333 312 290 300 312 286 310 316 314 322 273 292 286 305 268 252 205 183 188 207 225 236 233 209 193 221 246 248 268 265 268 267 275 282 264 261 255 230 233 223 205 205
358 359 4 6 5 360 353 347 345 348 351 343 325 301 296 306 306 301 311 310 280 269 303 302 297 303 313 231 199 261 197 209 220 222 229 193 187 222 233 243 259 282 257 269 270 280 274 248 244 237 224 209 203 206
355 355 356 356 353 352 349 343 341 344 344 341 327 325 278 314 313 316 321 329 301 261 223 250 243 250 257 236 199 208 197 227 221 215 179 215 232 245 231 225 261 287 267 252 260 270 254 236 231 216 208 198 193 191
349 348 345 345 347 346 347 346 344 345 349 353 342 327 327 335 2 10 338 345 319 273 225 259 259 264 254 240 238 214 211 229 233 189 216 210 234 223 221 245 264 276 253 244 251 256 256 242 222 201 177 173 173 176
341 341 342 338 345 348 348 346 345 345 345 345 354 354 353 3 14 18 347 319 321 316 308 303 294 282 273 241 223 247 226 213 238 150 209 227 207 242 276 287 294 290 228 215 227 230 226 209 194 177 165 158 152 149
339 337 337 339 347 349 349 348 350 351 359 17 15 359 9 358 25 8 359 351 321 326 306 321 316 280 280 232 264 289 246 234 155 208 209 55 30 142 32 348 10 25 185 180 123 114 134 138 143 146 141 140 145 147
341 341 341 345 349 350 348 353 356 1 17 26 17 25 27 11 332 295 301 296 286 268 303 310 293 259 289 314 293 284 298 281 291 0 31 11 50 146 50 318 344 65 130 94 94 96 107 104 110 104 101 125 126 126
341 342 343 347 349 349 347 353 4 11 27 48 37 17 352 312 295 284 289 292 304 305 312 301 275 263 339 315 355 296 312 332 22 343 334 6 90 124 86 347 77 88 111 125 131 129 109 111 103 112 107 95 100 104
345 342 345 344 348 349 350 353 12 29 41 38 50 339 315 316 318 330 330 318 343 329 321 282 322 357 349 329 320 356 318 8 322 320 30 55 74 103 106 87 84 85 83 88 90 94 97 92 92 87 90 91 86 86
348 345 341 344 347 353 357 8 15 30 40 22 344 324 305 282 270 307 313 319 340 345 354 28 14 345 300 340 355 16 342 306 333 18 43 56 57 67 76 77 71 79 77 78 79 75 77 84 88 87 83 86 97 109
344 345 341 343 347 358 8 16 25 29 28 342 331 341 336 324 326 348 349 354 359 357 12 38 338 3 7 347 334 319 305 342 38 35 44 53 62 56 58 60 63 70 77 79 78 79 78 75 70 64 63 71 93 147
339 336 338 340 344 354 5 19 17 11 320 331 335 348 348 355 11 23 29 29 33 36 56 22 22 6 0 328 339 339 16 40 29 24 47 55 59 60 59 57 57 64 69 69 67 63 64 66 65 62 57 58 68 76
342 337 336 337 348 358 2 10 8 337 338 326 339 343 347 4 25 39 40 34 33 31 35 32 2 347 327 344 352 346 10 62 42 27 37 47 50 52 56 60 63 71 75 73 67 68 64 61 57 54 54 57 59 60
344 345 347 354 1 19 27 5 336 340 323 324 335 345 322 9 32 37 27 31 40 32 359 342 340 350 21 23 33 55 51 53 36 37 50 52 52 55 58 64 67 67 70 72 69 67 63 59 53 50 52 57 56 58
337 343 340 356 353 350 1 1 310 305 300 307 335 335 344 7 354 6 7 34 43 9 353 336 343 345 357 9 14 49 64 63 66 69 58 52 50 50 54 58 64 61 60 57 60 64 67 65 61 58 57 58 58 58
335 340 343 342 326 340 311 344 357 351 331 329 348 340 4 5 356 356 56 22 27 358 1 1 3 350 354 15 24 54 66 65 62 55 54 55 56 52 49 49 50 51 55 55 52 52 62 66 65 59 56 55 55 54
339 347 340 356 359 320 334 346 352 350 347 8 348 337 4 347 343 52 9 340 349 353 0 9 13 21 39 43 41 51 55 65 60 64 60 51 50 46 43 43 43 48 49 50 54 50 53 58 58 56 52 48 47 46
334 342 6 344 359 352 9 354 358 16 347 2 347 347 358 341 12 43 9 351 353 358 355 356 7 14 9 15 37 47 58 72 69 77 77 75 69 60 58 57 54 53 52 50 49 44 37 35 34 38 34 31 30 30
142 298 79 337 330 3 336 336 4 356 333 332 351 304 339 326 39 87 321 342 341 345 349 347 343 350 8 360 8 16 11 35 64 81 73 68 67 65 61 56 53 48 42 43 39 37 34 25 20 23 21 11 9 3
216 234 212 242 281 273 232 293 276 302 353 331 323 327 324 314 248 176 359 351 337 337 345 339 356 4 352 339 3 12 7 40 66 78 67 61 61 62 60 56 50 46 41 38 38 46 50 50 48 48 47 43 33 17
210 187 193 209 216 213 215 201 231 224 216 192 283 270 299 241 246 314 335 331 325 320 317 331 337 353 8 10 9 325 244 91 82 62 54 51 59 56 55 50 44 38 32 32 29 24 26 31 31 38 44 41 34 26
203 192 187 223 215 215 223 209 217 217 209 193 209 248 249 266 289 301 311 310 309 299 294 343 317 320 343 19 61 71 86 119 192 220 74 44 24 23 39 40 36 34 32 31 22 2 354 15 22 27 31 32 33 24
208 186 183 197 191 223 232 213 238 251 257 264 266 274 281 285 296 302 301 298 292 291 270 268 253 253 265 284 307 42 56 54 47 37 27 19 15 9 5 4 6 9 12 10 14 16 3 341 354 10 60 359 346 347
178 186 195 207 227 244 262 271 270 266 264 267 280 276 279 295 302 297 288 279 276 271 263 261 257 260 248 231 241 302 350 9 7 0 0 1 357 353 347 345 345 347 348 349 351 354 356 343 325 321 308 297 308 331
193 197 201 211 249 272 275 270 265 262 266 263 275 283 284 292 297 290 267 250 250 251 250 246 238 246 271 279 272 290 322 336 342 347 351 1 6 7 8 7 3 357 349 347 347 344 337 330 328 326 324 314 299 294
213 225 227 243 256 260 264 242 251 262 257 270 277 283 287 281 248 267 275 269 249 240 237 234 241 228 218 230 242 277 292 292 289 294 46 61 54 44 39 39 39 38 35 29 22 13 6 2 356 351 351 352 350 334